Back to catalog

SOLIDARIDAD 1

AliveCommunicationsGEO
NORAD 22911·PAYLOAD·🇲🇽 Mexico

Launched Nov 20, 1993 from Guiana Space Centre

Loading…

TLE

FreshSource: Space-Track

Epoch: Sep 14, 2026, 09:32 UTC

1 22911U 93073A   26257.39730244 -.00000139  00000-0  00000-0 0  9995
2 22911  14.4062   1.6900 0009814 243.0344 149.5182  1.00277215118760

Track SOLIDARIDAD 1 in real time with AllMySat

Download on the App Store